Location: Gleizolles
(44.4833°N, 6.7667°E)
Time: 05:57:51
(UTC+00:00)

Transit 4A - Pass Details

Date: 26 June 2024
Orbit: 870 x 973 km, 66.8° (Epoch: 14 July)

Event Time Altitude Azimuth Distance (km) Brightness Sun altitude
Rises 22:45:58 0° 260° (W) 3,457 10.9 -21.2°
Reaches altitude 10° 22:49:09 10° 277° (W) 2,518 10.4 -21.4°
Maximum altitude 22:53:19 20° 323° (NW) 1,915 10.3 -21.5°
Drops below altitude 10° 22:57:31 10° 10° (N) 2,534 11.2 -21.6°
Sets 23:00:45 0° 27° (NNE) 3,486 11.8 -21.7°
